Weather in Karam

Russia / Irkutsk Oblast     55°08′33″N   107°36′02″E
temp.,
°C
wind,
m/s
gust,
m/s
humid.,
%
clouds,
%
prec.,
mm/h
press.,
hPa
HPBL,
m
14 april, wed
wed1423:00−2nw5128422 0.2 1014750
02:00−5nw25885 0.2 1017103
05:00−9wsw219657 0.0 101918
08:00−4ssw1283100 0.0 1018165
11:000sw2375100 0.4 1016930
14:00+2w465499 1.7 10141574
17:00+1wnw4757100 0.7 10141457
20:00−2w3880100 0.9 1015335
15 april, thu
thu1523:00−5wsw289087 0.0 1015206
02:00−6sw2693100 0.0 1014205
05:00−6ssw2396100 0.0 1013102
08:00−4sse1392100 0.4 1012268
11:00−2sse1287100 1.1 1012493
14:000n4666100 2.1 10131403
17:00+1nnw4758100 0.8 10151578
20:00−5wnw218422 0.9 101916
16 april, fri
fri1623:00−6w228945 0.0 102144
02:00−6wsw2290100 0.0 102252
05:00−7ssw249492 0.0 102298
08:00−4s3991100 0.3 1020494
11:00−2s41089100 0.7 1018846
14:00+1ssw4994100 2.0 1016836
17:00+3sw4986100 0.4 1014934
20:00+1ssw3988100 0.4 1015344
17 april, sat
sat1723:00−1s2496100 0.0 101477
02:00−2s2396100 0.0 101250
05:00−3ssw2794100 0.0 1011148
08:00+1ssw2781100 0.0 1009207
11:00+7sw51367100 0.0 10061406
14:00+5wnw61192100 0.4 10081039
17:00+3wnw3771100 0.1 10121100
20:00−2nnw4889100 0.5 1016783
18 april, sun
sun1823:00−3n3673100 0.1 1019811
02:00−6ne368152 0.1 1021504
05:00−8nne26825 0.0 1022441
08:00−7nne246335 0.0 1021542
11:00−3ne234747 0.0 1017693
14:00+1e234071 0.0 1013803
17:00+4s144165 0.0 1010988
20:00−2ene1181100 0.0 101210